Weather History for Westhampton Beach, NY

Change the Weather History Date:

Saturday, August 18, 2012

  Actual Average Record
Temperature  
Mean Temperature 66 °F -  
Max Temperature 73 °F 77 °F 91 °F (2002)
Min Temperature 57 °F 60 °F 33 °F (1996)
Cooling Degree Days 2    
Growing Degree Days 16 (Base 50)    
Moisture  
Dew Point 63 °F    
Average Humidity 89    
Maximum Humidity 97    
Minimum Humidity 68    
Precipitation  
Precipitation 1.46 in - - ()
Sea Level Pressure  
Sea Level Pressure 29.90 in    
Wind  
Wind Speed 6 mph (NNE)    
Max Wind Speed 15 mph    
Max Gust Speed 17 mph    
Visibility 6 miles    
Events Rain    
Averages and records for this station are not official NWS values.
T = Trace of Precipitation, MM = Missing Value Source: NWS Daily Summary

Daily Weather History Graph

Daily Weather History Graph

Search for Another Location

Airport:

Trip Planner

Search our weather history database for the weather conditions in past years. The results will help you decide how hot, cold, wet, or windy it might be!

Date:

Astronomy

Aug. 18, 2012 Rise Set
Actual Time 6:03 AM EDT 7:43 PM EDT
Civil Twilight 5:34 AM EDT 8:12 PM EDT
Nautical Twilight 4:59 AM EDT 8:47 PM EDT
Astronomical Twilight 4:21 AM EDT 9:25 PM EDT
Moon 7:09 AM EDT (8/18) 7:57 PM EDT (8/18)
Length of Visible Light 14h 38m
Length of Day
13h 39m
New Moon, 1% of the Moon is Illuminated
Aug 18
New Moon
Aug 24
First Quarter
Aug 31
Full
Sep 8
Last Quarter
Sep 15
New

Hourly Weather History & Observations

Time (EDT) Temp. Dew Point Humidity Pressure Visibility Wind Dir Wind Speed Gust Speed Precip Events Conditions
12:53 AM 73.0 °F 66.9 °F 81% 29.85 in 10.0 mi North 3.5 mph - N/A   Clear
1:53 AM 71.1 °F 68.0 °F 90% 29.85 in 9.0 mi Calm Calm - N/A   Mostly Cloudy
2:35 AM 71.6 °F 68.0 °F 88% 29.84 in 8.0 mi NNW 5.8 mph - N/A   Mostly Cloudy
2:53 AM 72.0 °F 68.0 °F 87% 29.85 in 10.0 mi WNW 10.4 mph - N/A   Overcast
3:22 AM 71.6 °F 66.2 °F 83% 29.85 in 10.0 mi North 12.7 mph - N/A   Mostly Cloudy
3:53 AM 70.0 °F 64.0 °F 81% 29.84 in 10.0 mi North 13.8 mph - N/A   Mostly Cloudy
4:53 AM 69.1 °F 62.1 °F 78% 29.85 in 10.0 mi North 6.9 mph - N/A   Mostly Cloudy
5:53 AM 69.1 °F 61.0 °F 75% 29.88 in 10.0 mi North 9.2 mph - N/A   Overcast
6:53 AM 66.0 °F 62.1 °F 87% 29.88 in 10.0 mi North 10.4 mph - 0.00 in Rain Light Rain
7:44 AM 64.4 °F 62.6 °F 94% 29.89 in 1.5 mi North 8.1 mph - 0.17 in Rain Heavy Rain
7:53 AM 64.0 °F 62.1 °F 93% 29.89 in 1.2 mi NNE 11.5 mph - 0.23 in Rain Rain
7:56 AM 64.4 °F 62.6 °F 94% 29.89 in 3.0 mi NNE 9.2 mph - 0.00 in Rain Light Rain
8:28 AM 64.4 °F 60.8 °F 88% 29.91 in 1.5 mi NE 6.9 mph - 0.14 in Rain Heavy Rain
8:51 AM 62.6 °F 60.8 °F 94% 29.89 in 3.0 mi NNE 10.4 mph - 0.27 in Rain Rain
8:52 AM 63.0 °F 62.1 °F 97% 29.89 in 3.0 mi NNE 10.4 mph - 0.27 in Rain Rain
9:17 AM 64.4 °F 62.6 °F 94% 29.91 in 2.0 mi Variable 3.5 mph 17.3 mph 0.09 in Rain Heavy Rain
9:19 AM 64.4 °F 62.6 °F 94% 29.91 in 1.8 mi Variable 3.5 mph 17.3 mph 0.10 in Rain Heavy Rain
9:31 AM 64.4 °F 62.6 °F 94% 29.90 in 0.8 mi NNW 15.0 mph - 0.31 in Rain Heavy Rain
9:46 AM 64.4 °F 62.6 °F 94% 29.92 in 1.5 mi North 6.9 mph - 0.50 in Rain Heavy Rain
9:53 AM 64.0 °F 63.0 °F 96% 29.91 in 2.0 mi Variable 3.5 mph - 0.54 in Rain Heavy Rain
10:00 AM 64.4 °F 62.6 °F 94% 29.92 in 1.5 mi Variable 3.5 mph - 0.06 in Rain Heavy Rain
10:10 AM 64.4 °F 62.6 °F 94% 29.92 in 3.0 mi NNE 5.8 mph - 0.09 in Rain Rain
10:36 AM 64.4 °F 62.6 °F 94% 29.92 in 2.0 mi NE 5.8 mph - 0.16 in Rain Rain
10:46 AM 64.4 °F 62.6 °F 94% 29.92 in 3.0 mi NE 4.6 mph - 0.16 in Rain Light Rain
10:53 AM 64.9 °F 63.0 °F 93% 29.92 in 3.0 mi NNE 4.6 mph - 0.17 in Rain Light Rain
11:10 AM 66.2 °F 64.4 °F 94% 29.92 in 2.0 mi North 4.6 mph - 0.04 in Rain Rain
11:21 AM 66.2 °F 64.4 °F 94% 29.92 in 3.0 mi NE 3.5 mph - 0.08 in Rain Rain
11:32 AM 66.2 °F 64.4 °F 94% 29.92 in 3.0 mi North 4.6 mph - 0.11 in Rain Rain
11:49 AM 66.2 °F 64.4 °F 94% 29.92 in 3.0 mi NNE 4.6 mph - 0.15 in Rain Light Rain
11:53 AM 66.0 °F 64.0 °F 93% 29.91 in 3.0 mi NNE 5.8 mph - 0.15 in Rain Rain
12:00 PM 66.2 °F 64.4 °F 94% 29.91 in 1.8 mi NNE 6.9 mph - 0.02 in Rain Rain
12:19 PM 66.2 °F 64.4 °F 94% 29.91 in 3.0 mi North 5.8 mph - 0.08 in Rain Light Rain
12:53 PM 66.9 °F 64.0 °F 90% 29.90 in 6.0 mi North 4.6 mph - 0.09 in Rain Light Rain
1:13 PM 66.2 °F 64.4 °F 94% 29.90 in 9.0 mi NNE 6.9 mph - 0.01 in Rain Light Rain
1:31 PM 66.2 °F 64.4 °F 94% 29.90 in 10.0 mi NNE 6.9 mph - 0.01 in   Overcast
1:53 PM 68.0 °F 63.0 °F 84% 29.90 in 10.0 mi NNE 6.9 mph - 0.01 in   Overcast
2:53 PM 68.0 °F 62.1 °F 81% 29.89 in 10.0 mi North 5.8 mph - N/A   Overcast
3:53 PM 70.0 °F 61.0 °F 73% 29.88 in 10.0 mi North 6.9 mph - 0.00 in   Overcast
4:53 PM 71.1 °F 61.0 °F 70% 29.88 in 10.0 mi East 5.8 mph - N/A   Overcast
5:53 PM 72.0 °F 61.0 °F 68% 29.87 in 10.0 mi NNE 3.5 mph - N/A   Scattered Clouds
6:53 PM 70.0 °F 62.1 °F 76% 29.87 in 10.0 mi Calm Calm - N/A   Mostly Cloudy
7:53 PM 66.9 °F 64.0 °F 90% 29.88 in 10.0 mi Calm Calm - N/A   Scattered Clouds
8:53 PM 63.0 °F 61.0 °F 93% 29.91 in 6.0 mi Calm Calm - N/A   Clear
9:04 PM 64.4 °F 62.6 °F 94% 29.91 in 1.8 mi Calm Calm - N/A   Clear
9:19 PM 62.6 °F 60.8 °F 94% 29.91 in 3.0 mi Calm Calm - N/A   Clear
9:25 PM 62.6 °F 60.8 °F 94% 29.91 in 1.8 mi Calm Calm - N/A   Clear
9:33 PM 62.6 °F 60.8 °F 94% 29.91 in 3.0 mi Calm Calm - N/A   Clear
9:53 PM 60.1 °F 57.9 °F 93% 29.92 in 10.0 mi Calm Calm - N/A   Clear
10:53 PM 60.1 °F 57.0 °F 90% 29.93 in 10.0 mi Calm Calm - N/A   Clear
11:53 PM 57.9 °F 55.9 °F 93% 29.94 in 9.0 mi Calm Calm - N/A   Clear